Location: Montjean
(48.0167°N, 0.9667°W)
Time: 05:46:51
(UTC+01:00)

ISS - Visible Passes

Search period start: 23 February 2018 00:00
Search period end: 05 March 2018 00:00
Orbit: 402 x 407 km, 51.6° (Epoch: 23 February)

Date Brightness Start Highest point End Pass type
(mag) Time Alt. Az. Time Alt. Az. Time Alt. Az.
25 Feb -0.7 07:15:40 10° SSE 07:17:18 13° SE 07:18:58 10° ESE visible
27 Feb -1.7 07:06:08 10° SSW 07:08:56 26° SE 07:11:44 10° E visible
28 Feb -1.1 06:14:45 10° S 06:16:50 16° SE 06:18:55 10° E visible
01 Mar -3.0 06:57:27 10° SW 07:00:38 50° SSE 07:03:49 10° ENE visible
02 Mar -2.3 06:06:45 19° SSW 06:08:25 31° SE 06:11:22 10° E visible
03 Mar -1.4 05:16:44 18° SE 05:16:44 18° SE 05:18:39 10° E visible
03 Mar -3.9 06:49:24 12° WSW 06:52:23 89° NW 06:55:41 10° ENE visible
04 Mar -3.5 05:59:15 43° SSW 06:00:04 60° SSE 06:03:19 10° ENE visible
